contact:dominique.lefevre@mio.osupytheas.fr, maurice.libes@osupytheas.fr, didier.mallarino@osupytheas.fr
Project:EMSO http://www.emso-fr.org/EMSO-France
Depth: 2436.0 m
Title:EMSO Ligure Ouest : Data MII capteur AQUADOPP
Date,Latitude,Longitude,X_East,Y_North,Z_Up,Amplitude_X,Amplitude_Y,Amplitude_Z,Batterie,SoundSpeed,Heading,Pitch,Roll,Pressure,TIS,Speed,Direction
, degrees North, degrees East, m.s-1, m.s-1,m.s-1, 1, 1, 1, Volt, m.s-1, degree, degree, degree, dbar, degree_C, m.s-1, degree
2020-02-22T00:04:03,42.805,6.029,0.005,0.005,-0.008,105.0,108.0,101.0,13.4,1505.3,324.5,-0.7,1.8,2470.162,13.31,0.007,45.0
2020-02-22T00:07:03,42.805,6.029,-0.043,-0.001,-0.103,105.0,108.0,102.0,13.4,1505.3,324.7,-0.7,1.8,2470.135,13.32,0.043,268.7
2020-02-22T00:10:03,42.805,6.029,0.012,0.0,-0.02,104.0,108.0,102.0,13.4,1505.3,327.4,-0.7,1.8,2470.125,13.32,0.012,90.0
2020-02-22T00:13:03,42.805,6.029,-0.003,0.006,-0.029,105.0,109.0,101.0,13.4,1505.3,326.6,-0.7,1.8,2470.108,13.32,0.006,333.4
2020-02-22T00:16:03,42.805,6.029,-0.04,-0.004,-0.053,103.0,109.0,102.0,13.4,1505.3,326.8,-0.7,1.8,2470.132,13.33,0.04,264.3
2020-02-22T00:19:03,42.805,6.029,-0.029,0.01,-0.023,105.0,109.0,101.0,13.4,1505.3,327.0,-0.7,1.8,2470.176,13.33,0.03,289.0
2020-02-22T00:22:03,42.805,6.029,0.011,-0.007,-0.02,105.0,108.0,100.0,13.4,1505.3,328.1,-0.7,1.8,2470.098,13.33,0.013,122.5
2020-02-22T00:25:03,42.805,6.029,-0.009,-0.009,-0.03,103.0,107.0,102.0,13.4,1505.3,323.1,-0.7,1.8,2470.11,13.33,0.012,225.0
2020-02-22T00:28:03,42.805,6.029,-0.009,-0.005,-0.07,104.0,107.0,101.0,13.4,1505.3,326.5,-0.7,1.8,2470.117,13.33,0.01,240.9
2020-02-22T00:31:03,42.805,6.029,0.009,-0.014,-0.019,105.0,108.0,100.0,13.3,1505.3,328.5,-0.7,1.8,2470.151,13.33,0.016,147.3
2020-02-22T00:34:03,42.805,6.029,-0.015,-0.011,-0.042,105.0,107.0,101.0,13.3,1505.3,323.4,-0.7,1.8,2470.117,13.33,0.018,233.7
2020-02-22T00:37:03,42.805,6.029,-0.011,0.011,-0.036,104.0,106.0,101.0,13.4,1505.3,325.4,-0.7,1.8,2470.112,13.33,0.015,315.0
2020-02-22T00:40:03,42.805,6.029,-0.022,-0.01,-0.062,104.0,105.0,101.0,13.4,1505.3,326.3,-0.7,1.8,2470.063,13.33,0.024,245.6
2020-02-22T00:43:03,42.805,6.029,0.0,0.01,-0.033,105.0,107.0,101.0,13.4,1505.3,328.5,-0.7,1.8,2470.146,13.33,0.01,0.0
2020-02-22T00:46:03,42.805,6.029,-0.005,0.002,-0.052,104.0,107.0,101.0,13.4,1505.3,323.9,-0.7,1.8,2470.109,13.33,0.005,291.8
2020-02-22T00:49:03,42.805,6.029,-0.026,-0.012,-0.041,103.0,106.0,101.0,13.4,1505.3,323.5,-0.7,1.8,2470.086,13.33,0.028,245.2
2020-02-22T00:52:03,42.805,6.029,-0.062,-0.029,-0.075,104.0,107.0,101.0,13.3,1505.3,323.2,-0.7,1.8,2470.122,13.33,0.068,244.9
2020-02-22T00:55:03,42.805,6.029,-0.006,-0.003,-0.058,104.0,107.0,101.0,13.4,1505.3,325.2,-0.7,1.9,2470.145,13.33,0.006,243.4
2020-02-22T00:58:03,42.805,6.029,-0.022,0.0,-0.042,104.0,106.0,101.0,13.4,1505.3,325.9,-0.7,1.8,2470.076,13.33,0.022,270.0
2020-02-22T01:04:03,42.805,6.029,0.018,-0.004,-0.012,106.0,109.0,102.0,13.4,1505.3,324.9,-0.7,1.8,2470.157,13.31,0.018,102.5
2020-02-22T01:07:03,42.805,6.029,-0.012,0.001,-0.03,103.0,108.0,101.0,13.4,1505.3,326.2,-0.7,1.8,2470.134,13.32,0.012,274.8
2020-02-22T01:10:03,42.805,6.029,-0.016,0.002,-0.058,103.0,109.0,101.0,13.4,1505.3,327.1,-0.7,1.8,2470.146,13.32,0.016,277.1
2020-02-22T01:13:03,42.805,6.029,0.0,0.0,-0.039,103.0,107.0,101.0,13.4,1505.3,327.5,-0.7,1.8,2470.107,13.33,0.0,0.0
2020-02-22T01:16:03,42.805,6.029,0.0,0.015,-0.046,104.0,108.0,100.0,13.4,1505.3,323.8,-0.7,1.9,2470.127,13.33,0.015,0.0
2020-02-22T01:19:03,42.805,6.029,-0.017,-0.008,-0.092,103.0,108.0,101.0,13.4,1505.3,326.2,-0.7,1.9,2470.112,13.33,0.018,244.8
2020-02-22T01:22:03,42.805,6.029,-0.016,0.0,-0.022,103.0,105.0,102.0,13.3,1505.3,328.5,-0.7,1.8,2470.123,13.33,0.016,270.0
2020-02-22T01:25:03,42.805,6.029,0.006,-0.007,-0.021,103.0,109.0,102.0,13.4,1505.3,326.8,-0.7,1.8,2470.145,13.33,0.009,139.4
2020-02-22T01:28:03,42.805,6.029,-0.031,-0.005,-0.079,104.0,104.0,100.0,13.3,1505.3,324.6,-0.7,1.9,2470.115,13.33,0.031,260.8
2020-02-22T01:34:03,42.805,6.029,0.002,0.003,-0.028,104.0,106.0,100.0,13.3,1505.3,324.8,-0.7,1.8,2470.141,13.31,0.003,33.7
2020-02-22T01:37:03,42.805,6.029,0.016,-0.015,-0.027,104.0,107.0,101.0,13.3,1505.3,325.9,-0.7,1.8,2470.173,13.32,0.021,133.1
2020-02-22T01:40:03,42.805,6.029,-0.026,0.0,-0.046,104.0,104.0,101.0,13.3,1505.3,324.1,-0.7,1.8,2470.171,13.33,0.026,270.0
2020-02-22T01:43:03,42.805,6.029,-0.014,-0.013,-0.045,104.0,105.0,100.0,13.3,1505.3,327.9,-0.7,1.8,2470.147,13.33,0.019,227.1
2020-02-22T01:46:03,42.805,6.029,-0.009,0.012,-0.033,103.0,105.0,101.0,13.4,1505.3,326.9,-0.7,1.8,2470.137,13.33,0.015,323.1
2020-02-22T01:49:03,42.805,6.029,0.025,-0.004,-0.002,104.0,105.0,100.0,13.4,1505.3,323.6,-0.7,1.8,2470.129,13.33,0.025,99.1
2020-02-22T01:52:03,42.805,6.029,0.022,0.001,-0.021,104.0,105.0,100.0,13.3,1505.3,327.4,-0.7,1.9,2470.14,13.33,0.022,87.4
2020-02-22T01:55:03,42.805,6.029,-0.008,0.0,-0.003,104.0,107.0,100.0,13.4,1505.3,326.8,-0.7,1.8,2470.121,13.33,0.008,270.0
2020-02-22T01:58:03,42.805,6.029,-0.015,-0.003,-0.037,104.0,105.0,101.0,13.4,1505.3,325.1,-0.7,1.8,2470.114,13.33,0.015,258.7
2020-02-22T02:01:03,42.805,6.029,-0.001,-0.002,-0.041,105.0,106.0,101.0,13.3,1505.3,326.1,-0.7,1.8,2470.149,13.33,0.002,206.6
2020-02-22T02:04:03,42.805,6.029,-0.033,0.007,-0.081,103.0,105.0,102.0,13.4,1505.3,325.3,-0.7,1.8,2470.164,13.33,0.033,282.0
2020-02-22T02:07:03,42.805,6.029,-0.023,-0.013,-0.037,105.0,105.0,101.0,13.3,1505.3,325.7,-0.7,1.9,2470.144,13.33,0.026,240.5
2020-02-22T02:10:03,42.805,6.029,-0.001,-0.023,-0.033,104.0,106.0,100.0,13.3,1505.3,325.2,-0.7,1.8,2470.122,13.33,0.023,182.5
2020-02-22T02:13:03,42.805,6.029,-0.013,-0.025,-0.014,104.0,105.0,102.0,13.3,1505.3,325.4,-0.6,1.8,2470.126,13.33,0.028,207.5
2020-02-22T02:16:03,42.805,6.029,0.024,-0.004,-0.039,104.0,107.0,101.0,13.4,1505.3,327.9,-0.7,1.8,2470.152,13.33,0.024,99.5
2020-02-22T02:19:03,42.805,6.029,0.003,-0.012,-0.005,105.0,104.0,102.0,13.3,1505.3,326.7,-0.7,1.8,2470.149,13.33,0.012,166.0
2020-02-22T02:22:03,42.805,6.029,-0.022,-0.018,-0.048,105.0,106.0,101.0,13.4,1505.3,325.2,-0.7,1.8,2470.148,13.33,0.028,230.7
2020-02-22T02:25:03,42.805,6.029,-0.013,-0.014,-0.032,104.0,107.0,101.0,13.4,1505.3,324.2,-0.7,1.8,2470.134,13.33,0.019,222.9
2020-02-22T02:28:03,42.805,6.029,0.009,-0.004,-0.04,104.0,106.0,101.0,13.4,1505.3,323.1,-0.7,1.8,2470.164,13.33,0.009,114.0
2020-02-22T02:31:03,42.805,6.029,0.011,0.004,-0.013,103.0,107.0,101.0,13.3,1505.3,324.1,-0.7,1.8,2470.13,13.33,0.011,70.0
2020-02-22T02:34:03,42.805,6.029,-0.021,-0.021,-0.073,103.0,107.0,102.0,13.4,1505.3,323.9,-0.7,1.9,2470.115,13.33,0.029,225.0
2020-02-22T02:37:03,42.805,6.029,-0.014,-0.017,-0.046,103.0,107.0,102.0,13.3,1505.3,326.5,-0.7,1.8,2470.191,13.33,0.022,219.5
2020-02-22T02:40:03,42.805,6.029,-0.022,0.0,-0.036,105.0,106.0,100.0,13.4,1505.3,324.6,-0.7,1.9,2470.159,13.33,0.022,270.0
2020-02-22T02:43:03,42.805,6.029,-0.01,0.003,-0.024,104.0,106.0,101.0,13.4,1505.3,328.1,-0.7,1.8,2470.165,13.33,0.01,286.7
2020-02-22T02:46:03,42.805,6.029,-0.001,-0.005,-0.018,103.0,106.0,102.0,13.4,1505.3,326.9,-0.7,1.8,2470.185,13.33,0.005,191.3
2020-02-22T02:49:03,42.805,6.029,-0.005,-0.004,-0.005,104.0,106.0,101.0,13.4,1505.3,327.5,-0.7,1.8,2470.178,13.33,0.006,231.3
2020-02-22T02:52:03,42.805,6.029,0.001,-0.009,-0.033,104.0,105.0,102.0,13.3,1505.3,323.9,-0.7,1.8,2470.16,13.33,0.009,173.7
2020-02-22T02:55:03,42.805,6.029,-0.006,-0.001,-0.064,105.0,106.0,101.0,13.4,1505.3,324.7,-0.7,1.8,2470.144,13.33,0.006,260.5
2020-02-22T02:58:03,42.805,6.029,0.01,-0.005,-0.01,105.0,107.0,102.0,13.4,1505.3,324.0,-0.7,1.8,2470.171,13.33,0.011,116.6
2020-02-22T03:04:03,42.805,6.029,-0.004,-0.006,-0.05,104.0,107.0,102.0,13.4,1505.3,326.1,-0.7,1.9,2470.212,13.32,0.007,213.7
2020-02-22T03:07:03,42.805,6.029,-0.003,0.028,0.002,105.0,106.0,101.0,13.4,1505.3,327.5,-0.7,1.9,2470.197,13.32,0.028,353.9
2020-02-22T03:10:03,42.805,6.029,-0.004,0.006,-0.037,104.0,107.0,101.0,13.4,1505.3,326.5,-0.7,1.8,2470.205,13.33,0.007,326.3
2020-02-22T03:13:03,42.805,6.029,-0.001,-0.009,-0.028,104.0,104.0,100.0,13.4,1505.3,327.0,-0.7,1.8,2470.236,13.33,0.009,186.3
2020-02-22T03:16:03,42.805,6.029,-0.014,0.003,-0.055,104.0,106.0,100.0,13.4,1505.3,323.5,-0.7,1.8,2470.178,13.33,0.014,282.1
2020-02-22T03:19:03,42.805,6.029,-0.031,-0.021,-0.049,103.0,107.0,103.0,13.4,1505.3,325.6,-0.7,1.8,2470.206,13.33,0.037,235.9
2020-02-22T03:22:03,42.805,6.029,-0.009,0.016,-0.013,105.0,107.0,100.0,13.4,1505.3,326.2,-0.7,1.8,2470.231,13.33,0.018,330.6
2020-02-22T03:28:03,42.805,6.029,0.01,0.018,-0.001,104.0,106.0,101.0,13.4,1505.3,323.2,-0.8,1.8,2470.256,13.31,0.02,29.1
2020-02-22T03:31:03,42.805,6.029,0.004,0.009,-0.041,104.0,107.0,103.0,13.4,1505.3,324.8,-0.7,1.8,2470.221,13.32,0.009,24.0
2020-02-22T03:34:03,42.805,6.029,0.002,0.0,-0.053,102.0,107.0,102.0,13.3,1505.3,325.9,-0.7,1.8,2470.273,13.33,0.002,90.0
2020-02-22T03:37:03,42.805,6.029,-0.025,0.006,-0.076,104.0,107.0,99.0,13.4,1505.3,324.9,-0.7,1.8,2470.257,13.33,0.025,283.5
2020-02-22T03:40:03,42.805,6.029,-0.01,0.004,-0.032,103.0,106.0,99.0,13.4,1505.3,326.4,-0.7,1.8,2470.23,13.33,0.01,291.8
2020-02-22T03:43:03,42.805,6.029,-0.004,-0.009,-0.044,103.0,105.0,100.0,13.4,1505.3,325.3,-0.7,1.9,2470.217,13.33,0.009,204.0
2020-02-22T03:46:03,42.805,6.029,0.033,0.013,-0.007,102.0,105.0,101.0,13.4,1505.3,327.5,-0.7,1.8,2470.219,13.33,0.035,68.5
2020-02-22T03:49:03,42.805,6.029,0.006,0.017,-0.038,103.0,106.0,99.0,13.3,1505.3,324.7,-0.7,1.8,2470.211,13.33,0.018,19.4
2020-02-22T03:52:03,42.805,6.029,-0.003,0.011,-0.067,102.0,107.0,101.0,13.4,1505.3,324.5,-0.7,1.8,2470.247,13.33,0.011,344.7
2020-02-22T03:55:03,42.805,6.029,-0.03,-0.005,-0.059,103.0,105.0,101.0,13.3,1505.4,327.0,-0.7,1.8,2470.242,13.34,0.03,260.5
2020-02-22T03:58:03,42.805,6.029,-0.02,0.001,-0.037,102.0,107.0,100.0,13.4,1505.4,324.1,-0.7,1.9,2470.249,13.34,0.02,272.9
2020-02-22T04:04:03,42.805,6.029,-0.027,-0.01,-0.053,103.0,107.0,99.0,13.3,1505.3,324.2,-0.7,1.8,2470.263,13.31,0.028,249.7
2020-02-22T04:07:03,42.805,6.029,-0.012,-0.003,-0.06,101.0,106.0,101.0,13.4,1505.3,323.6,-0.7,1.8,2470.276,13.32,0.012,256.0
2020-02-22T04:10:03,42.805,6.029,-0.056,0.0,-0.046,102.0,106.0,101.0,13.4,1505.3,326.3,-0.7,1.8,2470.287,13.33,0.056,270.0
2020-02-22T04:13:03,42.805,6.029,-0.038,0.004,-0.078,103.0,106.0,101.0,13.3,1505.3,324.3,-0.7,1.8,2470.275,13.33,0.038,276.0
2020-02-22T04:16:03,42.805,6.029,-0.03,-0.001,-0.056,103.0,106.0,102.0,13.4,1505.3,326.9,-0.7,1.8,2470.266,13.33,0.03,268.1
2020-02-22T04:19:03,42.805,6.029,0.038,0.001,-0.013,103.0,106.0,102.0,13.3,1505.3,326.0,-0.7,1.8,2470.303,13.33,0.038,88.5
2020-02-22T04:22:03,42.805,6.029,0.006,0.014,-0.058,105.0,106.0,101.0,13.4,1505.3,323.0,-0.7,1.8,2470.263,13.33,0.015,23.2
2020-02-22T04:25:03,42.805,6.029,0.01,0.019,-0.036,103.0,106.0,100.0,13.4,1505.3,326.0,-0.7,1.9,2470.264,13.33,0.021,27.8
2020-02-22T04:28:03,42.805,6.029,0.012,0.002,-0.057,103.0,106.0,101.0,13.3,1505.3,326.0,-0.7,1.9,2470.282,13.33,0.012,80.5
2020-02-22T04:31:03,42.805,6.029,0.001,0.007,-0.029,102.0,106.0,101.0,13.3,1505.3,323.4,-0.7,1.8,2470.284,13.33,0.007,8.1
2020-02-22T04:34:03,42.805,6.029,0.005,0.01,0.009,103.0,107.0,100.0,13.4,1505.3,325.7,-0.7,1.9,2470.303,13.33,0.011,26.6
2020-02-22T04:37:03,42.805,6.029,0.013,-0.011,-0.036,103.0,107.0,100.0,13.4,1505.3,324.3,-0.7,1.9,2470.241,13.33,0.017,130.2
2020-02-22T04:40:03,42.805,6.029,-0.037,0.0,-0.049,103.0,109.0,100.0,13.4,1505.3,327.5,-0.7,1.8,2470.285,13.33,0.037,270.0
2020-02-22T04:43:03,42.805,6.029,-0.034,0.001,-0.09,103.0,107.0,101.0,13.4,1505.3,325.5,-0.7,1.9,2470.316,13.33,0.034,271.7
2020-02-22T04:46:03,42.805,6.029,-0.031,0.008,-0.042,103.0,107.0,101.0,13.3,1505.3,325.8,-0.7,1.8,2470.267,13.33,0.032,284.5
2020-02-22T04:49:03,42.805,6.029,-0.006,-0.016,-0.051,104.0,107.0,99.0,13.3,1505.3,325.2,-0.7,1.8,2470.294,13.33,0.017,200.6
2020-02-22T04:52:03,42.805,6.029,-0.034,-0.008,-0.09,103.0,108.0,100.0,13.4,1505.3,323.4,-0.7,1.8,2470.341,13.33,0.034,256.8
2020-02-22T04:55:03,42.805,6.029,-0.039,-0.011,-0.069,103.0,109.0,101.0,13.4,1505.3,326.5,-0.7,1.8,2470.283,13.33,0.04,254.3
2020-02-22T04:58:03,42.805,6.029,-0.02,-0.001,-0.024,104.0,108.0,100.0,13.4,1505.3,327.9,-0.7,1.8,2470.31,13.33,0.02,267.1
2020-02-22T05:04:03,42.805,6.029,-0.04,-0.01,-0.056,102.0,108.0,102.0,13.3,1505.3,327.3,-0.8,1.9,2470.373,13.31,0.041,256.0
2020-02-22T05:07:03,42.805,6.029,-0.04,0.009,-0.085,102.0,107.0,101.0,13.4,1505.3,326.1,-0.8,1.8,2470.368,13.31,0.041,282.7
2020-02-22T05:10:03,42.805,6.029,0.002,-0.003,-0.076,105.0,107.0,100.0,13.3,1505.3,325.9,-0.7,1.8,2470.304,13.32,0.003,146.3
2020-02-22T05:13:03,42.805,6.029,-0.044,0.002,-0.069,104.0,107.0,101.0,13.4,1505.3,325.5,-0.7,1.9,2470.335,13.32,0.044,272.6
2020-02-22T05:16:03,42.805,6.029,-0.06,0.005,-0.067,104.0,107.0,101.0,13.4,1505.3,325.7,-0.7,1.8,2470.332,13.33,0.06,274.8
2020-02-22T05:19:03,42.805,6.029,-0.025,0.001,-0.044,103.0,108.0,100.0,13.4,1505.3,324.8,-0.7,1.8,2470.39,13.33,0.025,272.3
2020-02-22T05:22:03,42.805,6.029,-0.006,-0.02,-0.065,105.0,108.0,101.0,13.3,1505.3,326.7,-0.7,1.8,2470.349,13.33,0.02,196.7
2020-02-22T05:25:03,42.805,6.029,-0.023,-0.02,-0.07,104.0,109.0,101.0,13.4,1505.3,323.2,-0.7,1.8,2470.349,13.33,0.03,229.0
2020-02-22T05:28:03,42.805,6.029,-0.033,-0.028,-0.054,103.0,109.0,100.0,13.3,1505.3,325.7,-0.7,1.8,2470.378,13.33,0.043,229.7
2020-02-22T05:31:03,42.805,6.029,-0.004,-0.002,-0.064,103.0,110.0,102.0,13.4,1505.3,326.5,-0.7,1.8,2470.374,13.33,0.004,243.4
2020-02-22T05:34:03,42.805,6.029,0.007,0.002,-0.044,105.0,108.0,101.0,13.3,1505.3,326.8,-0.7,1.8,2470.321,13.33,0.007,74.1
2020-02-22T05:37:03,42.805,6.029,-0.013,0.017,-0.04,105.0,109.0,102.0,13.4,1505.3,327.0,-0.7,1.8,2470.397,13.33,0.021,322.6
2020-02-22T05:40:03,42.805,6.029,-0.006,0.006,-0.058,105.0,108.0,101.0,13.3,1505.3,323.4,-0.7,1.8,2470.328,13.33,0.008,315.0
2020-02-22T05:43:03,42.805,6.029,-0.011,0.0,-0.005,104.0,107.0,101.0,13.4,1505.3,325.6,-0.7,1.8,2470.332,13.33,0.011,270.0
2020-02-22T05:46:03,42.805,6.029,-0.007,-0.003,-0.058,104.0,109.0,100.0,13.4,1505.3,325.4,-0.7,1.8,2470.339,13.33,0.007,246.8
2020-02-22T05:49:03,42.805,6.029,0.0,-0.002,-0.003,105.0,108.0,102.0,13.3,1505.3,326.2,-0.7,1.8,2470.311,13.33,0.002,180.0
2020-02-22T05:52:03,42.805,6.029,-0.009,0.006,-0.035,105.0,108.0,101.0,13.4,1505.3,327.2,-0.7,1.8,2470.359,13.33,0.01,303.7
2020-02-22T05:55:03,42.805,6.029,0.0,0.0,-0.064,104.0,106.0,101.0,13.4,1505.3,324.1,-0.7,1.8,2470.373,13.33,0.0,0.0
2020-02-22T05:58:03,42.805,6.029,0.001,0.001,-0.031,104.0,106.0,102.0,13.4,1505.3,328.0,-0.7,1.8,2470.371,13.33,0.001,45.0
2020-02-22T06:04:03,42.805,6.029,0.0,0.0,-0.029,102.0,108.0,100.0,13.4,1505.3,323.6,-0.8,1.8,2470.372,13.31,0.0,0.0
2020-02-22T06:07:03,42.805,6.029,-0.024,0.0,-0.056,103.0,108.0,102.0,13.4,1505.3,326.8,-0.7,1.9,2470.398,13.31,0.024,270.0
2020-02-22T06:10:03,42.805,6.029,-0.016,0.006,-0.019,104.0,107.0,102.0,13.4,1505.3,327.5,-0.7,1.8,2470.357,13.32,0.017,290.6
2020-02-22T06:13:03,42.805,6.029,-0.004,-0.014,-0.089,103.0,107.0,101.0,13.4,1505.3,323.8,-0.7,1.8,2470.381,13.32,0.014,195.9
2020-02-22T06:16:03,42.805,6.029,-0.003,-0.012,-0.049,103.0,108.0,101.0,13.4,1505.3,326.7,-0.7,1.9,2470.393,13.32,0.012,194.0
2020-02-22T06:19:03,42.805,6.029,0.009,-0.002,-0.052,104.0,108.0,101.0,13.4,1505.3,326.4,-0.7,1.9,2470.347,13.33,0.009,102.5
2020-02-22T06:22:03,42.805,6.029,-0.003,-0.005,-0.054,104.0,107.0,100.0,13.4,1505.3,323.2,-0.7,1.8,2470.381,13.33,0.005,211.0
2020-02-22T06:25:03,42.805,6.029,0.008,-0.013,-0.054,104.0,108.0,101.0,13.4,1505.3,327.6,-0.8,1.8,2470.374,13.33,0.015,148.4
2020-02-22T06:28:03,42.805,6.029,-0.02,0.002,-0.02,104.0,105.0,101.0,13.4,1505.3,326.8,-0.7,1.8,2470.387,13.33,0.02,275.7
2020-02-22T06:31:03,42.805,6.029,-0.031,0.006,-0.053,104.0,106.0,101.0,13.4,1505.3,323.5,-0.7,1.8,2470.37,13.33,0.031,281.0
2020-02-22T06:34:03,42.805,6.029,0.02,-0.016,-0.04,103.0,105.0,101.0,13.4,1505.3,327.1,-0.7,1.9,2470.375,13.33,0.025,128.7
2020-02-22T06:37:03,42.805,6.029,-0.003,-0.018,-0.039,104.0,105.0,101.0,13.4,1505.3,327.0,-0.7,1.8,2470.342,13.33,0.018,189.5
2020-02-22T06:40:03,42.805,6.029,0.013,-0.004,-0.02,104.0,105.0,100.0,13.4,1505.3,326.0,-0.7,1.8,2470.366,13.33,0.013,107.1
2020-02-22T06:43:03,42.805,6.029,-0.004,-0.016,-0.038,103.0,108.0,102.0,13.4,1505.3,325.0,-0.7,1.8,2470.401,13.33,0.016,194.0
2020-02-22T06:46:03,42.805,6.029,-0.008,-0.01,-0.051,105.0,106.0,101.0,13.3,1505.3,323.2,-0.7,1.8,2470.353,13.33,0.012,218.7
2020-02-22T06:49:03,42.805,6.029,0.004,-0.014,-0.013,105.0,105.0,100.0,13.4,1505.3,323.6,-0.7,1.8,2470.34,13.33,0.014,164.1
2020-02-22T06:52:03,42.805,6.029,-0.002,-0.012,-0.051,104.0,105.0,102.0,13.4,1505.3,327.8,-0.7,1.8,2470.397,13.33,0.012,189.5
2020-02-22T06:55:03,42.805,6.029,-0.008,0.002,-0.031,105.0,107.0,102.0,13.4,1505.3,326.2,-0.7,1.9,2470.372,13.33,0.008,284.0
2020-02-22T06:58:03,42.805,6.029,-0.003,-0.029,-0.053,105.0,105.0,102.0,13.4,1505.3,326.3,-0.7,1.8,2470.356,13.33,0.029,185.9
2020-02-22T07:04:03,42.805,6.029,-0.029,-0.002,-0.018,104.0,105.0,101.0,13.3,1505.3,327.5,-0.7,1.8,2470.425,13.31,0.029,266.1
2020-02-22T07:07:03,42.805,6.029,0.004,-0.018,-0.042,104.0,105.0,102.0,13.4,1505.3,324.1,-0.7,1.8,2470.439,13.31,0.018,167.5
2020-02-22T07:10:03,42.805,6.029,0.021,-0.005,0.0,104.0,104.0,101.0,13.4,1505.3,324.4,-0.7,1.8,2470.384,13.32,0.021,103.4
2020-02-22T07:13:03,42.805,6.029,-0.039,-0.008,-0.052,106.0,105.0,101.0,13.4,1505.3,323.3,-0.7,1.9,2470.397,13.32,0.039,258.4
2020-02-22T07:16:03,42.805,6.029,0.0,-0.014,-0.045,103.0,106.0,101.0,13.3,1505.3,325.2,-0.7,1.9,2470.418,13.33,0.014,180.0
2020-02-22T07:19:03,42.805,6.029,-0.024,-0.015,-0.033,105.0,106.0,101.0,13.3,1505.3,324.7,-0.7,1.8,2470.395,13.33,0.028,238.0
2020-02-22T07:22:03,42.805,6.029,-0.013,-0.009,-0.073,104.0,107.0,101.0,13.3,1505.3,324.1,-0.7,1.8,2470.38,13.33,0.015,235.3
2020-02-22T07:25:03,42.805,6.029,-0.015,-0.004,-0.045,105.0,106.0,101.0,13.4,1505.3,325.4,-0.7,1.8,2470.42,13.33,0.015,255.1
2020-02-22T07:28:03,42.805,6.029,0.007,-0.01,-0.048,104.0,104.0,101.0,13.4,1505.3,326.8,-0.7,1.8,2470.392,13.33,0.012,145.0
2020-02-22T07:31:03,42.805,6.029,0.003,-0.017,-0.028,103.0,105.0,100.0,13.4,1505.3,327.6,-0.7,1.8,2470.388,13.33,0.017,170.0
2020-02-22T07:34:03,42.805,6.029,-0.06,-0.009,-0.09,106.0,106.0,100.0,13.4,1505.3,325.3,-0.7,1.8,2470.375,13.33,0.06,261.5
2020-02-22T07:37:03,42.805,6.029,-0.013,0.0,-0.04,105.0,105.0,102.0,13.4,1505.3,327.0,-0.7,1.8,2470.395,13.33,0.013,270.0
2020-02-22T07:40:03,42.805,6.029,0.006,-0.002,-0.018,104.0,106.0,102.0,13.4,1505.3,326.2,-0.7,1.8,2470.367,13.33,0.006,108.4
2020-02-22T07:43:03,42.805,6.029,0.015,0.005,-0.048,106.0,105.0,100.0,13.4,1505.3,324.0,-0.7,1.8,2470.362,13.33,0.015,71.6
2020-02-22T07:46:03,42.805,6.029,-0.003,0.004,-0.018,104.0,105.0,102.0,13.4,1505.3,324.4,-0.7,1.8,2470.352,13.33,0.005,323.1
2020-02-22T07:49:03,42.805,6.029,-0.003,-0.012,-0.029,104.0,105.0,101.0,13.3,1505.3,325.2,-0.7,1.8,2470.388,13.33,0.012,194.0
2020-02-22T07:52:03,42.805,6.029,-0.029,-0.03,-0.071,103.0,106.0,101.0,13.4,1505.3,324.9,-0.7,1.8,2470.333,13.33,0.041,224.0
2020-02-22T07:55:03,42.805,6.029,-0.023,-0.002,-0.056,104.0,105.0,100.0,13.4,1505.3,324.3,-0.7,1.8,2470.399,13.33,0.023,265.0
2020-02-22T07:58:03,42.805,6.029,-0.003,-0.011,-0.036,104.0,105.0,103.0,13.4,1505.3,326.3,-0.7,1.9,2470.38,13.33,0.011,195.3
2020-02-22T08:04:03,42.805,6.029,0.003,-0.006,-0.044,104.0,106.0,101.0,13.4,1505.3,324.3,-0.7,1.8,2470.407,13.31,0.006,153.4
2020-02-22T08:07:03,42.805,6.029,-0.017,-0.017,-0.06,104.0,105.0,100.0,13.3,1505.3,327.7,-0.7,1.8,2470.399,13.32,0.024,225.0
2020-02-22T08:10:03,42.805,6.029,-0.048,-0.012,-0.077,104.0,104.0,101.0,13.4,1505.3,325.2,-0.7,1.8,2470.37,13.32,0.049,256.0
2020-02-22T08:13:03,42.805,6.029,0.012,-0.006,-0.019,104.0,105.0,101.0,13.4,1505.3,324.4,-0.7,1.8,2470.393,13.32,0.013,116.6
2020-02-22T08:16:03,42.805,6.029,-0.003,0.004,-0.024,104.0,104.0,101.0,13.4,1505.3,323.7,-0.7,1.8,2470.431,13.33,0.005,323.1
2020-02-22T08:19:03,42.805,6.029,-0.011,-0.015,-0.031,103.0,103.0,101.0,13.4,1505.3,326.8,-0.8,1.9,2470.418,13.33,0.018,216.3
2020-02-22T08:22:03,42.805,6.029,-0.025,-0.01,-0.027,103.0,106.0,100.0,13.4,1505.3,326.7,-0.8,1.8,2470.401,13.33,0.026,248.2
2020-02-22T08:25:03,42.805,6.029,-0.021,-0.002,-0.023,103.0,104.0,100.0,13.4,1505.3,323.1,-0.7,1.8,2470.367,13.33,0.021,264.6
2020-02-22T08:28:03,42.805,6.029,-0.037,-0.031,-0.035,104.0,105.0,101.0,13.3,1505.3,323.3,-0.7,1.8,2470.34,13.33,0.048,230.0
2020-02-22T08:31:03,42.805,6.029,-0.055,-0.014,-0.095,104.0,106.0,101.0,13.4,1505.3,324.5,-0.7,1.8,2470.386,13.33,0.056,255.7
2020-02-22T08:34:03,42.805,6.029,-0.008,-0.018,-0.015,104.0,106.0,100.0,13.3,1505.3,326.4,-0.7,1.8,2470.38,13.33,0.019,204.0
2020-02-22T08:37:03,42.805,6.029,-0.033,-0.001,-0.052,104.0,105.0,103.0,13.4,1505.3,323.2,-0.7,1.8,2470.357,13.33,0.033,268.3
2020-02-22T08:40:03,42.805,6.029,0.002,-0.007,-0.023,102.0,105.0,101.0,13.3,1505.3,327.6,-0.7,1.8,2470.378,13.33,0.007,164.1
2020-02-22T08:43:03,42.805,6.029,-0.012,-0.004,-0.049,104.0,104.0,101.0,13.3,1505.3,323.7,-0.7,1.8,2470.349,13.33,0.012,251.6
2020-02-22T08:46:03,42.805,6.029,-0.025,0.0,-0.063,104.0,106.0,100.0,13.4,1505.3,324.5,-0.7,1.8,2470.385,13.33,0.025,270.0
2020-02-22T08:49:03,42.805,6.029,-0.006,0.014,-0.031,103.0,106.0,100.0,13.4,1505.3,327.9,-0.7,1.8,2470.344,13.33,0.015,336.8
2020-02-22T08:52:03,42.805,6.029,-0.015,-0.001,-0.039,103.0,105.0,100.0,13.3,1505.3,325.5,-0.7,1.8,2470.302,13.33,0.015,266.2
2020-02-22T08:55:03,42.805,6.029,-0.006,-0.008,-0.019,104.0,105.0,102.0,13.4,1505.3,324.6,-0.7,1.8,2470.333,13.33,0.01,216.9
2020-02-22T08:58:03,42.805,6.029,-0.041,0.002,-0.051,104.0,104.0,101.0,13.4,1505.3,327.4,-0.7,1.8,2470.378,13.33,0.041,272.8
2020-02-22T09:04:03,42.805,6.029,0.039,-0.001,-0.022,104.0,105.0,101.0,13.3,1505.3,325.7,-0.7,1.9,2470.382,13.31,0.039,91.5
2020-02-22T09:07:03,42.805,6.029,0.021,0.008,0.003,102.0,106.0,100.0,13.4,1505.3,323.4,-0.7,1.8,2470.378,13.32,0.022,69.1
2020-02-22T09:10:03,42.805,6.029,-0.028,-0.02,-0.004,103.0,105.0,101.0,13.3,1505.3,326.3,-0.7,1.9,2470.344,13.32,0.034,234.5
2020-02-22T09:13:03,42.805,6.029,0.009,-0.008,-0.011,104.0,104.0,100.0,13.3,1505.3,326.5,-0.7,1.9,2470.339,13.32,0.012,131.6
2020-02-22T09:16:03,42.805,6.029,0.011,0.0,0.0,104.0,104.0,101.0,13.4,1505.3,323.8,-0.7,1.8,2470.376,13.32,0.011,90.0
2020-02-22T09:19:03,42.805,6.029,0.001,-0.011,-0.03,104.0,104.0,101.0,13.4,1505.3,322.6,-0.7,1.8,2470.318,13.33,0.011,174.8
2020-02-22T09:22:03,42.805,6.029,0.013,-0.022,-0.031,103.0,106.0,101.0,13.3,1505.3,323.7,-0.7,1.8,2470.398,13.33,0.025,149.4
2020-02-22T09:25:03,42.805,6.029,-0.004,-0.024,-0.032,103.0,104.0,100.0,13.3,1505.3,327.9,-0.7,1.8,2470.375,13.33,0.024,189.5
2020-02-22T09:28:03,42.805,6.029,0.027,-0.007,-0.002,104.0,104.0,100.0,13.4,1505.3,325.3,-0.7,1.8,2470.354,13.33,0.027,104.5
2020-02-22T09:31:03,42.805,6.029,0.011,-0.001,-0.037,103.0,105.0,101.0,13.3,1505.3,327.4,-0.7,1.8,2470.349,13.33,0.011,95.2
2020-02-22T09:34:03,42.805,6.029,-0.001,0.0,-0.018,103.0,106.0,100.0,13.4,1505.3,325.9,-0.7,1.8,2470.371,13.33,0.001,270.0
2020-02-22T09:37:03,42.805,6.029,-0.003,0.008,-0.02,103.0,107.0,101.0,13.3,1505.3,325.9,-0.7,1.8,2470.348,13.33,0.008,339.4
2020-02-22T09:40:03,42.805,6.029,0.006,0.006,0.007,104.0,105.0,100.0,13.3,1505.3,324.0,-0.7,1.8,2470.346,13.33,0.008,45.0
2020-02-22T09:43:03,42.805,6.029,0.007,-0.004,-0.052,103.0,104.0,101.0,13.4,1505.3,324.5,-0.7,1.8,2470.311,13.33,0.008,119.7
2020-02-22T09:46:03,42.805,6.029,-0.005,0.006,-0.012,103.0,104.0,99.0,13.3,1505.3,327.1,-0.7,1.9,2470.345,13.33,0.007,320.2
2020-02-22T09:49:03,42.805,6.029,-0.026,-0.003,-0.068,103.0,105.0,100.0,13.4,1505.3,324.4,-0.7,1.8,2470.368,13.33,0.026,263.4
2020-02-22T09:52:03,42.805,6.029,0.021,-0.009,-0.033,104.0,105.0,101.0,13.4,1505.3,325.5,-0.7,1.8,2470.356,13.33,0.022,113.2
2020-02-22T09:55:03,42.805,6.029,0.009,-0.01,-0.039,104.0,105.0,101.0,13.3,1505.3,323.3,-0.8,1.9,2470.358,13.33,0.013,138.0
2020-02-22T09:58:03,42.805,6.029,-0.036,-0.001,-0.055,103.0,104.0,100.0,13.4,1505.3,327.9,-0.7,1.8,2470.334,13.33,0.036,268.4